Regional Weather Roundup
Issued by NWS Green Bay, WI

Home | Current Version | Previous Version | Graphics & Text | Print | Product List | Glossary Off
Versions: 1 2 3 4 5 6 7 8 9 10 11 12 13 14 15 16 17 18 19 20 21 22 23 24 25 26 27 28 29 30 31 32 33 34 35 36 37 38 39 40 41 42 43 44 45 46 47 48 49 50

000
ASUS43 KGRB 241411
RWRGRB

NORTH-CENTRAL AND NORTHEAST WISCONSIN REGIONAL WEATHER ROUNDUP
NATIONAL WEATHER SERVICE GREEN BAY WI
900 AM CDT MON APR 24 2017

WIZ005-009-010>012-018-019-241500-
NORTH CENTRAL WISCONSIN

CITY           SKY/WX    TMP DP  RH WIND       PRES   REMARKS
IRONWOOD       NOT AVBL
MANITOWISH WTR MOSUNNY   38  28  66 SE10      29.94S
ARBOR VITAE    CLOUDY    39  28  65 SE10      29.94F
EAGLE RIVER    CLOUDY    35  25  66 SE8       29.96F
LAND O LAKES   CLOUDY    36  26  66 SE8       29.99F
RHINELANDER    MOSUNNY   40  29  64 SE9       29.97F
PHILLIPS       MOSUNNY   39  30  70 SE8       29.92F
ANTIGO         MOSUNNY   38  31  73 SE12      29.99F
TOMAHAWK       CLOUDY    40  30  67 SE5       29.96F
MERRILL        CLOUDY    40  30  69 SE8       29.98F
$$

WIZ013-073-241500-
NORTHEAST WISCONSIN

CITY           SKY/WX    TMP DP  RH WIND       PRES   REMARKS
IRON MOUNTAIN  MOSUNNY   34  25  69 E8        30.03F
MARINETTE      SUNNY     41  33  73 E7        30.06F
OCONTO         SUNNY     43  34  71 E6        30.04F
$$

WIZ017-030-035>037-045-241500-
CENTRAL WISCONSIN

CITY           SKY/WX    TMP DP  RH WIND       PRES   REMARKS
MEDFORD        CLOUDY    38  31  74 SE8       29.94F
WAUSAU         CLOUDY    40  30  67 SE9       29.97F
MOSINEE        CLOUDY    39  32  75 SE8       29.99F
MARSHFIELD     MOSUNNY   42  33  70 SE14      29.95F
WISC RAPIDS    MOSUNNY   45  34  65 SE7       29.99S
STEVENS POINT  MOSUNNY   40  31  71 E7        30.00S
WAUPACA        MOSUNNY   46  34  65 E5        30.02S
SHAWANO        MOSUNNY   42  34  74 E6        30.04F
CLINTONVILLE   MOSUNNY   43  32  65 E5        30.02F
WAUTOMA        NOT AVBL
$$

WIZ038-039-048-051-241500-
FOX VALLEY

CITY           SKY/WX    TMP DP  RH WIND       PRES   REMARKS
NWS GREEN BAY  SUNNY     46  38  73 VRB6      30.04S
APPLETON       MOSUNNY   45  32  61 E6        30.01S
OSHKOSH        SUNNY     49  36  61 S5        30.01S
FOND DU LAC    SUNNY     53  37  54 S9        30.00F
$$

WIZ022-050-052-241500-
EAST CENTRAL WISCONSIN

CITY           SKY/WX    TMP DP  RH WIND       PRES   REMARKS
EPHRAIM        FAIR      44  34  68 SE8       30.05F
WASHINGTON ISL PTSUNNY   40  31  69 E7        30.06S
STURGEON BAY   SUNNY     46  37  71 SE7       30.06S
MANITOWOC      SUNNY     49  39  68 S15       30.04F
SHEBOYGAN      SUNNY     50  42  74 S8        30.02F
$$

LMZ563-521-522-541>543-241500-
LAKESHORE

STATION/POSITION TIME  TEMP    WIND        PRES    VSBY  WAVE
                       AIR SEA DIR/SP/G                  HT/PER
                 (UTC) (F)     (DEG/KT/KT) (MB)    (MI)  (FT/S)
SHEBOYGAN LKSHOR 1400   43     180/ 10/ 11 1017.3S
KEWAUNEE LKSHORE 1348   44     140/  3/  6 1017.1R
NORTHPORT PIER   1340   38      90/  7/ 10 1018.3R
N MID LAKE BUOY  1350   37 37   90/ 10/ 12 1019.7R         2/ 4
CHAMBERS ISLAND  1340   40      40/  4/  8 1017.6S
MENOMINEE LKSHOR 1348   38      30/  8/  9 1017.1F
$$



USA.gov is the U.S. government's official web portal to all federal, state and local government web resources and services.